User: anonymous   Login
Location: Strawberry
(45.6646°N, 111.9596°W)
Time: 18:28:52
(UTC+00:00)
Language:

Max Valier Satellite - Orbit

View from above orbital plane
View from above orbital plane
View from above satellite
View from above satellite

Ground track
Ground track

The orbit data is extracted from the following two-line orbital elements,

1 42778U 17036P   22334.36424900  .00009236  00000-0  31816-3 0  9999
2 42778  97.1860   9.8856 0011894  94.6829 265.5771 15.30170116302247
Epoch (UTC): 30 November 2022 08:44:31
Eccentricity: 0.0011894
inclination: 97.1860°
perigee height: 467 km
apogee height: 483 km
right ascension of ascending node: 9.8856°
argument of perigee: 94.6829°
revolutions per day: 15.30170116
mean anomaly at epoch: 265.5771°
orbit number at epoch: 30224

The dashed part of the orbit path shows where the satellite is in the earth's shadow,  

DLR